Location: ?ern� Novina
(50.6762°N, 14.8696°E)
Time: 11:59:51
(UTC+00:00)

Cosmos 1943 Rocket - Pass Details

Date: 03 March 2021
Orbit: 811 x 845 km, 71.0° (Epoch: 10 April)

Event Time Altitude Azimuth Distance (km) Brightness Sun altitude
Rises 20:42:53 0° 331° (NNW) 3,416 6.2 -36.0°
Reaches altitude 10° 20:45:22 10° 335° (NNW) 2,477 5.3 -36.3°
Enters shadow 20:48:14 30° 345° (NNW) 1,477 3.8 -36.6°
